This is the latest recevied weather packets stored in our database for station/object KQ4NAL. If no packets are shown the sender has not sent any weather packets the latest 10 day(s).
| Time | Temp. | Humidity | Pressure | Rain* | Wind** | Luminosity | Snow |
|---|---|---|---|---|---|---|---|
| 1777650959 | 11.67° C | 76% | 1014.6 hPa | 0 mm | - | 269 W/m² | - |
| 1777650656 | 11.67° C | 77% | 1014.8 hPa | 0 mm | - | 246 W/m² | - |
| 1777650354 | 11.11° C | 77% | 1014.8 hPa | 0 mm | - | 177 W/m² | - |
| 1777650050 | 11.11° C | 77% | 1014.6 hPa | 0 mm | - | 155 W/m² | - |
| 1777649748 | 10.56° C | 77% | 1014.5 hPa | 0 mm | - | 155 W/m² | - |
| 1777649444 | 10.56° C | 77% | 1014.6 hPa | 0 mm | - | 78 W/m² | - |
| 1777649141 | 11.11° C | 76% | 1014.3 hPa | 0 mm | - | 66 W/m² | - |
| 1777648838 | 11.11° C | 75% | 1014.4 hPa | 0 mm | - | 82 W/m² | - |
| 1777648535 | 10.56° C | 74% | 1014.3 hPa | 0 mm | - | 98 W/m² | - |
| 1777648232 | 11.11° C | 73% | 1014.4 hPa | 0 mm | - | 81 W/m² | - |
| 1777647927 | 11.11° C | 73% | 1014.2 hPa | 0 mm | - | 81 W/m² | - |
| 1777647624 | 11.11° C | 72% | 1014.5 hPa | 0 mm | - | 90 W/m² | - |
| 1777647320 | 11.11° C | 72% | 1014.2 hPa | 0 mm | - | 121 W/m² | - |
| 1777647019 | 11.11° C | 73% | 1014.1 hPa | 0 mm | - | 140 W/m² | - |
| 1777646714 | 11.11° C | 71% | 1014.1 hPa | 0 mm | - | 131 W/m² | - |
| 1777646409 | 11.11° C | 71% | 1014 hPa | 0 mm | - | 131 W/m² | - |
| 1777646106 | 11.11° C | 71% | 1013.9 hPa | 0 mm | - | 151 W/m² | - |
| 1777645803 | 11.11° C | 70% | 1014.3 hPa | 0 mm | - | 118 W/m² | - |
| 1777645501 | 11.11° C | 70% | 1014 hPa | 0 mm | - | 91 W/m² | - |
| 1777645196 | 10.56° C | 71% | 1014 hPa | 0 mm | - | 89 W/m² | - |
| 1777644892 | 11.11° C | 73% | 1014 hPa | 0 mm | - | 130 W/m² | - |
| 1777644590 | 10.56° C | 74% | 1013.8 hPa | 0 mm | - | 115 W/m² | - |
| 1777644286 | 10.56° C | 76% | 1013.9 hPa | 0 mm | - | 140 W/m² | - |
| 1777643982 | 10.56° C | 75% | 1013.8 hPa | 0 mm | - | 142 W/m² | - |
| 1777643679 | 10.56° C | 76% | 1013.8 hPa | 0 mm | - | 81 W/m² | - |
* Rain latest hour (hover to see other rain measurements)
** Current wind speed in m/s (hover to see current wind gust speed)